STARLINK-1312, 45398

Orbit data source: Space-Track

STARLINK-1312, 45398 is a payload satellite owned by SpaceX/Seattle (US) in LEO that was launched on Wed, 18 Mar 2020 UTC via an FALCON 9 launch vehicle from the Air Force Eastern Test Range (AFETR). Payloads include a variety of satellites, spacecraft, and rockets equipped with specific instruments for various scientific and technological missions. These include communications satellites like Starlink; space stations such as the ISS; scientific satellites like the Hubble; Earth observation satellites from companies like Planet Labs, Umbra, and HawkEye 360; GPS; miniature CubeSats for education and research; and military/defense satellites.

Loading next visibility...
STARLINK-1312 details
Identifier
45398, 2020-019AQ
Orbit
LEO
Last TLE update22 hours ago
Origin
Flag of USSpaceX/Seattle (US)
ManufacturerSpaceX/Seattle
MissionOperational Commercial Communications
Bus & MotorSTARLINK, Unknown motor
Mass260 kg wet, ~248 kg dry
Launch date (UTC)
2020-03-18 (5 years ago)
Launch vehicle
FALCON 9
Launch site
Air Force Eastern Test Range (AFETR)
Object type
Payload
Rocket body
Debris
Shape & HBRBox + 1 Pan, 8.86 m
Radar Cross Section13.562 m², Large (>1 m²)

Expand to show TLE details & history

TLE from 22 hours ago
0 STARLINK-1312
1 45398U 20019AQ  24360.55846131  .00022403  00000-0  15178-2 0  9994
2 45398  53.0549 317.9551 0001094  86.9629 273.1485 15.06407624263570
Epoch: 2024-12-25T13:24Z
Definitive object data (Epoch: 2024-12-25T13:24:11.057Z)
Latitude-0.00002°
Longitude22.35853°
Altitude548.026 km
Speed7.589 km/s
True Right ascension21h 11m 49s
True Declination0° 00' 00"
Sunlit
Object was in daylight at TLE epoch
Visualization TLE readout
Latitude-5.69989°
Longitude13.91217°
Altitude548.944 km
Speed7.588 km/s
Apparent Right ascension21h 37m 07s
Apparent Declination-22° 55' 58"
Sunlit
Object is in daylight
Visualization observer readout
Local Sidereal Time11:01:12
Azimuth52.583° ENE
Elevation-65.418°
Doppler factor1
Orbital elements
Apogee altitude548.217 km
Perigee altitude546.701 km
Semi-major axis6,925.596 km
Eccentricity0.0001094
Inclination53.0549°
RAAN317.9551°
Arg. of periapsis86.9629°
True anomaly273.13598°
Mean anomaly273.1485°
Eccentric anomaly273.14224°
Mean motion3.7658 °/min
BSTAR0.0015178
Orbital period95.6 mins
Loading maneuver chart data...
Loading historical data...
Loading historical data...
Loading historical data...
Loading historical data...
Loading historical data...
Loading historical data...
Loading historical data...

STARLINK-1312 Visibility forecast

Observer location: undefined°, undefined

Span
Click to sort rows by Start time (UTC) header in descending order
Start Az.
Max El. time (UTC)
Max El. Az.
Max El.
End time (UTC)
End Az.
6 mins2024-12-26 22:59:49.474Z184.214° SSW2024-12-26 23:02:49.474Z123.091° SE25.604°2024-12-26 23:05:49.474Z72.466° E
5 mins2024-12-27 00:39:49.474Z269.374° W2024-12-27 00:41:49.474Z322.317° NNW33.463°2024-12-27 00:44:49.474Z33.031° NE
5 mins2024-12-27 05:41:49.474Z341.106° N2024-12-27 05:43:49.474Z32.411° NE29.346°2024-12-27 05:46:49.474Z91.88° ESE
6 mins2024-12-27 07:20:49.474Z285.511° WNW2024-12-27 07:22:49.474Z244.125° WSW30.651°2024-12-27 07:26:49.474Z160.53° S
|